Weather History for Page, AZ

Change the Weather History Date:

Wednesday, January 8, 2014

  Actual Average Record
Temperature  
Mean Temperature 36 °F -  
Max Temperature 44 °F 39 °F 58 °F (1962)
Min Temperature 27 °F 22 °F 4 °F (1971)
Degree Days  
Heating Degree Days 30    
Moisture  
Dew Point 14 °F    
Average Humidity 43    
Maximum Humidity 56    
Minimum Humidity 19    
Precipitation  
Precipitation 0.00 in - - ()
Sea Level Pressure  
Sea Level Pressure 30.13 in    
Wind  
Wind Speed 2 mph (NE)    
Max Wind Speed 6 mph    
Max Gust Speed -    
Visibility 9 miles    
Events      
Averages and records for this station are not official NWS values.
T = Trace of Precipitation, MM = Missing Value Source: NWS Daily Summary

Daily Weather History Graph

Daily Weather History Graph

Search for Another Location

Airport:

Trip Planner

Search our weather history database for the weather conditions in past years. The results will help you decide how hot, cold, wet, or windy it might be!

Date:

Astronomy

Jan. 08, 2014 Rise Set
Actual Time 7:39 AM MST 5:26 PM MST
Civil Twilight 7:10 AM MST 5:54 PM MST
Nautical Twilight 6:38 AM MST 6:27 PM MST
Astronomical Twilight 6:07 AM MST 6:58 PM MST
Moon 12:16 PM MST (1/8) 12:53 AM MST (1/8)
Length of Visible Light 10h 44m
Length of Day
9h 47m
First Quarter, 56% of the Moon is Illuminated
Jan 8
First Quarter
Jan 15
Full
Jan 23
Last Quarter
Jan 30
New
Feb 6
First Quarter

Hourly Weather History & Observations

Time (MST) Temp. Windchill Dew Point Humidity Pressure Visibility Wind Dir Wind Speed Gust Speed Precip Events Conditions
12:53 AM 27.0 °F - 12.0 °F 53% 30.18 in 8.0 mi Calm Calm - N/A   Clear
1:53 AM 28.0 °F - 12.0 °F 51% 30.16 in 10.0 mi Calm Calm - N/A   Clear
2:53 AM 28.0 °F 24.2 °F 12.0 °F 51% 30.15 in 10.0 mi SE 3.5 mph - N/A   Clear
3:53 AM 28.9 °F 22.8 °F 15.1 °F 56% 30.14 in 10.0 mi NW 5.8 mph - N/A   Clear
4:53 AM 28.0 °F 24.2 °F 14.0 °F 56% 30.16 in 10.0 mi SW 3.5 mph - N/A   Clear
5:53 AM 28.0 °F 24.2 °F 12.9 °F 53% 30.15 in 10.0 mi South 3.5 mph - N/A   Clear
6:26 AM 28.0 °F - 12.9 °F 53% 30.11 in 2.5 mi Calm Calm - N/A   Haze
6:34 AM 28.0 °F - 12.9 °F 53% 30.11 in 8.0 mi Calm Calm - N/A   Clear
6:53 AM 28.0 °F - 12.9 °F 53% 30.17 in 9.0 mi Calm Calm - N/A   Clear
7:53 AM 28.0 °F 24.2 °F 12.9 °F 53% 30.18 in 6.0 mi NE 3.5 mph - N/A   Haze
8:53 AM 28.9 °F - 14.0 °F 54% 30.20 in 5.0 mi Calm Calm - N/A   Haze
9:53 AM 35.1 °F 30.1 °F 15.1 °F 44% 30.20 in 10.0 mi North 5.8 mph - N/A   Clear
10:53 AM 36.0 °F 32.1 °F 16.0 °F 44% 30.20 in 10.0 mi North 4.6 mph - N/A   Clear
11:53 AM 37.9 °F - 16.0 °F 41% 30.17 in 10.0 mi Calm Calm - N/A   Clear
12:53 PM 39.9 °F 37.8 °F 15.1 °F 36% 30.12 in 10.0 mi NNE 3.5 mph - N/A   Clear
1:53 PM 42.1 °F 40.2 °F 14.0 °F 32% 30.08 in 10.0 mi ENE 3.5 mph - N/A   Clear
2:53 PM 44.1 °F - 15.1 °F 31% 30.07 in 10.0 mi Calm Calm - N/A   Clear
3:53 PM 44.1 °F 40.8 °F 15.1 °F 31% 30.05 in 10.0 mi NE 5.8 mph - N/A   Clear
4:53 PM 42.1 °F 40.2 °F 14.0 °F 32% 30.06 in 10.0 mi North 3.5 mph - N/A   Clear
5:53 PM 37.9 °F - 12.9 °F 36% 30.07 in 10.0 mi Calm Calm - N/A   Clear
6:53 PM 37.0 °F - 14.0 °F 39% 30.09 in 6.0 mi Calm Calm - N/A   Haze
7:53 PM 36.0 °F - 15.1 °F 43% 30.13 in 7.0 mi Calm Calm - N/A   Clear
8:53 PM 35.1 °F 31.0 °F 15.1 °F 44% 30.13 in 7.0 mi South 4.6 mph - N/A   Clear
9:53 PM 34.0 °F - 15.1 °F 46% 30.13 in 10.0 mi Calm Calm - N/A   Clear
10:53 PM 34.0 °F 31.0 °F 15.1 °F 46% 30.14 in 10.0 mi SSE 3.5 mph - N/A   Clear
11:53 PM 32.0 °F - 15.1 °F 50% 30.13 in 5.0 mi Calm Calm - N/A   Haze